Regional Weather Roundup
Issued by NWS

Home | Current Version | Previous Version | Text Only | Print | Product List | Glossary Off
Versions: 1 2 3 4 5 6 7 8 9 10 11 12 13 14 15 16 17 18 19 20 21 22 23 24 25 26 27 28 29 30 31 32 33 34 35 36 37 38 39 40 41 42 43 44 45 46 47 48 49 50

000
ASUS45 KBOU 090007
RWRCO

WEATHER ROUNDUP FOR COLORADO
NATIONAL WEATHER SERVICE DENVER/BOULDER CO
500 PM MST MON FEB 08 2016

NOTE: "FAIR" INDICATES FEW OR NO CLOUDS BELOW 12000 FEET WITH NO
SIGNIFICANT WEATHER AND/OR OBSTRUCTIONS TO VISIBILITY.

COZ001>005-013-030-031-090100-
...NORTHWEST COLORADO...

CITY           SKY/WX    TMP DP  RH WIND       PRES   REMARKS
CRAIG          CLOUDY    20  14  77 CALM      30.52F
HAYDEN         CLOUDY    28  14  54 E3        30.51F
MEEKER         CLOUDY    31  20  63 CALM      30.50S
MOUNT WERNER   NOT AVBL
STEAMBOAT SPGS CLOUDY    30  17  60 CALM      30.51S
WALDEN         CLEAR     28  19  69 CALM      30.47R
$$

COZ006>008-011-090100-
...WEST CENTRAL VALLEYS...

CITY           SKY/WX    TMP DP  RH WIND       PRES   REMARKS
GRAND JUNCTION CLEAR     33  27  78 N6        30.51S WCI  28
MONTROSE       CLOUDY    39  22  50 CALM      30.51F
EAGLE          CLEAR     37  19  48 CALM      30.50S
RIFLE          CLOUDY    36  21  54 S3        30.50S
DELTA          CLOUDY    42  23  46 CALM      30.52S
NUCLA          CLOUDY    45  25  45 CALM      30.50R
$$

COZ017>023-064>068-090100-
...SOUTHWEST COLORADO...

CITY           SKY/WX    TMP DP  RH WIND       PRES   REMARKS
DURANGO        CLOUDY    40  21  46 E6        30.40R
CORTEZ         CLOUDY    49  24  37 CALM      30.40R
PAGOSA SPRINGS CLOUDY    44  21  40 SW5       30.41S
TELLURIDE      CLOUDY    42   8  24 NW6       30.50S
WOLF CREEK PAS CLOUDY    30   9  40 N18G25    30.54S WCI  18
$$

COZ009-010-012-014-032>034-037-058>063-090100-
...CENTRAL COLORADO...

CITY           SKY/WX    TMP DP  RH WIND       PRES   REMARKS
ASPEN          CLOUDY    31  19  61 W3        30.47S
BUENA VISTA    CLOUDY    42  20  40 NW16      30.40R
COPPER MTN     CLOUDY    27  16  63 NW15      30.51S WCI  15
BERTHOUD PASS  FAIR      18   7  62 NW38      30.44R WCI  -4
COTTONWOOD PAS NOT AVBL
GUNNISON       CLOUDY    19   9  63 E5        30.51S WCI  13
KREMMLING      CLOUDY    30  18  59 CALM      30.51R
LEADVILLE      CLOUDY    31  15  52 N16G25    30.44S WCI  20
MONARCH PASS   CLOUDY    27  16  63 SW8       30.61R WCI  18
SALIDA         NOT AVBL
SUNLIGHT       CLOUDY    28  21  74 CALM        N/A
WILKERSON PASS CLEAR     30  10  43 NW13G26   30.47S WCI  20
$$

COZ069>075-090100-
...SAN LUIS VALLEY/SANGRE DE CRISTO MOUNTAINS...

CITY           SKY/WX    TMP DP  RH WIND       PRES   REMARKS
ALAMOSA        CLOUDY    40  21  46 SW6       30.38S
LA VETA PASS   CLEAR     34  18  51 MISG      30.42R
SAGUACHE       CLOUDY    43  21  42 N18       30.40S
$$

COZ035-036-038>040-090100-
...NORTHERN COLORADO FRONT RANGE...

CITY           SKY/WX    TMP DP  RH WIND       PRES   REMARKS
DENVER INTL AP MOCLDY    39  25  57 SE8       30.32S
DMNS CITY PARK   N/A     44  21  40 E9G15     30.32S
AURORA         MOCLDY    39  27  61 SE7       30.33S
FRONT RANGE AP MOCLDY    37  25  60 SE5       30.33S
ERIE MUNI ARPT CLEAR     44  25  48 CALM      30.32S
BOULDER MUN AP CLEAR     41  27  56 N3        30.31S
CENTENNIAL     PTCLDY    41  23  48 SE7       30.32S
BROOMFIELD     MOCLDY    46  25  42 E6        30.32R
FORT COLLINS   CLEAR     37  25  60 S9        30.32S
LONGMONT       CLEAR     42  26  52 CALM      30.33S
$$

COZ041-046-047-076>085-087-088-090100-
...PIKES PEAK/PALMER DIVIDE AND SOUTHERN FOOTHILLS...

CITY           SKY/WX    TMP DP  RH WIND       PRES   REMARKS
COLO. SPRINGS  PTCLDY    35  21  56 E5        30.37R WCI  31
A. F. ACADEMY  MOCLDY    36  22  58 S5        30.35R
SCHRIEVER AFB  NOT AVBL
ELLICOTT       NOT AVBL
FALCON         CLEAR     33  21  63 W5        30.37R WCI  28
FORT CARSON    CLEAR     39  25  56 NE5       30.36R
LIMON          CLOUDY    34  25  69 W8        30.31F WCI  27
MONUMENT HILL  CLEAR     32  19  59 CALM      30.36R
TRINIDAD       CLEAR     42  20  41 E9        30.35R
$$

COZ042>045-048>051-090-091-090100-
...NORTHEAST COLORADO...

CITY           SKY/WX    TMP DP  RH WIND       PRES   REMARKS
GREELEY ARPT   CLOUDY    39  25  56 SW7       30.32S
AKRON          CLOUDY    38  28  67 NW20      30.28F
BURLINGTON     CLOUDY    35  25  66 NW8       30.29S WCI  29
WRAY           CLOUDY    38  28  68 NW13      30.28F
STERLING       CLOUDY    37  32  81 NW7       30.28F
HOLYOKE        CLOUDY    37  28  70 NW12      30.27S
FORT MORGAN    CLOUDY    38  28  67 NW12      30.31S
$$

COZ086-089-092>099-090100-
...SOUTHEAST COLORADO...

CITY           SKY/WX    TMP DP  RH WIND       PRES   REMARKS
PUEBLO         CLEAR     47  24  40 E5        30.35S
LA JUNTA       CLEAR     44  24  45 NW5       30.36R
LAMAR          MOCLDY    43  25  49 W12       30.33S
SPRINGFIELD      N/A     41  22  46 NW12      30.35R
$$



USA.gov is the U.S. government's official web portal to all federal, state and local government web resources and services.